Regional Weather Roundup
Issued by NWS

Home | Current Version | Previous Version | Graphics & Text | Print | Product List | Glossary On
Versions: 1 2 3 4 5 6 7 8 9 10 11 12 13 14 15 16 17 18 19 20 21 22 23 24 25 26 27 28 29 30 31 32 33 34 35 36 37 38 39 40 41 42 43 44 45 46 47 48 49 50
000
ASUS45 KTFX 230004
RWRMT
MONTANA HOURLY WEATHER ROUNDUP
NATIONAL WEATHER SERVICE GREAT FALLS MT
604 PM MDT MON SEP 22 2014

NOTE: "FAIR" INDICATES FEW OR NO CLOUDS BELOW 12000 FEET WITH NO
SIGNIFICANT WEATHER AND/OR OBSTRUCTIONS TO VISIBILITY.

* THESE STATIONS ARE NOT UNDER NWS QUALITY CONTROL. THEY DO NOT
   REPORT WEATHER SUCH AS PRECIPITATION OR FOG.

MTZ001>007-043-230100-
WEST OF THE DIVIDE
CITY           SKY/WX    TMP DP  RH WIND       PRES   REMARKS
KALISPELL      PTCLDY    81  45  28 S6        29.90S
MISSOULA       CLEAR     82  39  22 N12       29.92R
BUTTE          CLOUDY    66  46  49 W3        30.08F
MULLAN PASS    MOCLDY    64  43  47 VRB5      30.13S
* ESSEX        N/A       77  44  31 N/A        N/A
* LINCOLN      N/A       77  41  28 S3         N/A
* POLSON       N/A       80  45  29 S2G7       N/A
* RONAN APT    PTCLDY    82  43  25 N/A        N/A
* SEELEY LAKE  N/A       81  36  20 W8G15      N/A
* THOMP F APT  PTCLDY    59  52  78 SW2G9      N/A
$$

MTZ008-052>055-230100-
SOUTHWEST MONTANA
CITY           SKY/WX    TMP DP  RH WIND       PRES   REMARKS
BOZEMAN        CLOUDY    66  54  65 CALM      30.03F
DILLON         CLOUDY    66  48  52 CALM      30.07F
W YELLOWSTONE  CLOUDY    55  48  77 S10       30.18S
* THREE FORKS  CLOUDY    70  70 100 E5         N/A
* BOULDER HILL N/A       65  45  49 SW11       N/A
* MONIDA PASS  N/A       56  50  80 S4G9       N/A
* RAYNOLDS PAS N/A       57  37  47 S10        N/A
* WHITEHALL    N/A       68  50  53 SW10G18    N/A
* WISE RIVER   N/A       63  49  60 SE10       N/A
$$

MTZ009>010-012-014-046-048-049-054-230100-
EAST SLOPES AND CENTRAL MONTANA
CITY           SKY/WX    TMP DP  RH WIND       PRES   REMARKS
CUT BANK       PTCLDY    82  41  23 NW8       29.88S
GREAT FALLS    PTCLDY    75  48  39 SW13      29.88S
HELENA         MOCLDY    75  52  45 E14       29.94S
MALMSTROM AFB  MOCLDY    79  46  31 SW15G23   29.89R
* CONRAD       MOCLDY    81  48  32 W6         N/A
* EAST GLACIER N/A       75  40  28 NW11G19    N/A
* MONARCH      N/A       69  43  39 SW8        N/A
* PENDROY      N/A       76  42  30 NW9        N/A
* ROGERS PASS  N/A       70  41  35 SE5        N/A
* SAINT MARY   N/A       78  41  27 S7G17      N/A
* SWEET GRASS  N/A       80  37  21 NW11       N/A
$$

MTZ011-013-016-021-035-040-045-047-050-051-230100-
NORTH CENTRAL MONTANA
CITY           SKY/WX    TMP DP  RH WIND       PRES   REMARKS
HAVRE          PTCLDY    81  48  32 S5        29.81F
LEWISTOWN      MOCLDY    72  55  55 E5        29.93S
* CHESTER      N/A       83  39  21 W3         N/A
* DENTON       N/A       79  46  31 E3         N/A
* GEYSER       N/A       72  54  53 SW8        N/A
* JUDITH GAP   N/A       71  51  49 SW9G14     N/A
* LOMA         N/A       86  46  25 S2         N/A
$$

MTZ017>020-022>027-061-062-230100-
NORTHEAST MONTANA
CITY           SKY/WX    TMP DP  RH WIND       PRES   REMARKS
GLASGOW        CLEAR     79  48  34 S7        29.83S
GLENDIVE       PTCLDY    72  54  53 NE7       29.87F
JORDAN         PTCLDY    75  52  45 S6        29.85S
SIDNEY         CLEAR    N/A N/A N/A S8        29.86F
WOLF POINT     CLEAR     82  52  35 SE3       29.83S
* BEAVER HILL  N/A       71  52  51 E9         N/A
* CIRCLE       N/A       81  51  35 S2G7       N/A
* LINDSAY DVD  N/A       74  49  41 SE9        N/A
* NAVAJO       N/A       79  45  30 SE7        N/A
$$

MTZ028>042-056>058-230100-
SOUTHCENTRAL AND SOUTHEAST MONTANA
CITY           SKY/WX    TMP DP  RH WIND       PRES   REMARKS
BAKER          PTCLDY    72  48  43 SE12      29.90F
BILLINGS       MOCLDY    81  45  28 W8        29.90F
LIVINGSTON     CLOUDY    70  48  46 W13       30.01S
MILES CITY     MOCLDY    81  48  32 NW7       29.84S
* LAUREL APT   PTCLDY    81  45  28 W8         N/A
* ROUNDUP APT  MOCLDY    77  54  45 N/A        N/A
* ALZADA       N/A       76  50  40 E6         N/A
* HYSHAM       N/A       77  50  39 SW1        N/A
* LAME DEER    N/A       74  49  41 SW6        N/A
* REED POINT   N/A       75  45  34 W19G24     N/A
* ROSCOE HILL  N/A       69  39  34 NE8        N/A
$$

REGIONAL REPORTS...DAKOTAS
CITY           SKY/WX    TMP DP  RH WIND       PRES   REMARKS
WILLISTON      CLEAR     81  48  32 SE8       29.87S
DICKINSON      MOCLDY    72  52  49 SE12      29.90F
BEACH          N/A       73  50  44 SE14      29.90F
CROSBY         CLEAR     75  48  39 S10       29.89S
TIOGA          CLEAR     75  48  39 SE12G18   29.93F
WATFORD CITY   CLEAR     79  48  34 SE10      29.87S
BISMARCK       PTCLDY    72  48  43 SE8       29.95S
GRAND FORKS    CLEAR     70  48  46 S8        30.01F
FARGO          CLEAR     73  46  38 S7        30.04F
BUFFALO SD     MOCLDY    72  50  46 SE10      29.84S
RAPID CITY     CLOUDY    72  52  49 S16G26    29.91F
$$

REGIONAL REPORTS...WYOMING/IDAHO/WASHINGTON
CITY           SKY/WX    TMP DP  RH WIND       PRES   REMARKS
GILLETTE       CLOUDY    73  52  48 W7        29.93S
SHERIDAN       CLOUDY    72  46  40 SW20G26   29.94F
CODY           MOCLDY    70  43  38 SW13G20   30.02S
YELLOWSTONE LA MOCLDY    48  46  93 CALM      30.26F
SALMON         PTCLDY    73  50  44 S6G16     29.99F
MULLAN PASS    MOCLDY    64  43  47 VRB5      30.13S
SAND POINT     PTCLDY    77  50  39 E6        29.90F
SPOKANE        CLOUDY    81  46  29 SW10      29.91F

$$



USA.gov is the U.S. government's official web portal to all federal, state and local government web resources and services.